Location: Barrialito
(10.3588°N, 66.9747°W)
Time: 15:04:54
(UTC+00:00)

Cosmos 1356 Rocket - Pass Details

Date: 08 December 2021
Orbit: 542 x 597 km, 81.2° (Epoch: 19 January)

Event Time Altitude Azimuth Distance (km) Brightness Sun altitude
Rises 23:01:01 0° 1° (N) 2,814 6.7 -13.3°
Reaches altitude 10° 23:03:15 10° 5° (N) 1,919 5.8 -13.9°
Maximum altitude 23:07:25 57° 84° (E) 705 3.5 -14.8°
Drops below altitude 10° 23:11:37 10° 163° (SSE) 1,928 6.1 -15.8°
Sets 23:13:52 0° 167° (SSE) 2,829 7.1 -16.3°
